VTK601 UEEE-UHMM

Flight info

Callsign VTK601
Flight time 1h 35m
Altitude 41000
Route KUTEG6F KUTEG G370 INLIR A949 KUKIR KUKIR5J
Aircraft A343/H-SDE2E3FGHIJ4J5M1RWXY/LB1D1

Departure

Time 2026-04-23 05:18
Airport Platon Oyunsky Yakutsk International Airport (UEEE)

Arrival

Time 2026-04-23 06:53
Airport Sokol Airport (UHMM)
Time Latitude Longitude Altitude Speed Heading
2026-04-23 05:03 62.10008 129.77043 335 ft 0 kts 304°
2026-04-23 05:15 62.10016 129.77021 332 ft 7 kts 308°
2026-04-23 05:15 62.10082 129.77019 330 ft 13 kts 31°
2026-04-23 05:16 62.10139 129.77185 333 ft 15 kts 62°
2026-04-23 05:16 62.10195 129.77402 331 ft 18 kts 59°
2026-04-23 05:16 62.10222 129.77659 333 ft 19 kts 108°
2026-04-23 05:16 62.10149 129.77909 331 ft 21 kts 125°
2026-04-23 05:17 62.10059 129.78168 331 ft 22 kts 127°
2026-04-23 05:17 62.09968 129.78403 331 ft 17 kts 149°
2026-04-23 05:17 62.09853 129.78335 328 ft 19 kts 217°
2026-04-23 05:17 62.09661 129.78028 326 ft 64 kts 217°
2026-04-23 05:18 62.09135 129.77187 331 ft 123 kts 217°
2026-04-23 05:18 62.08344 129.75919 512 ft 154 kts 216°
2026-04-23 05:18 62.07469 129.74495 1085 ft 162 kts 216°
2026-04-23 05:18 62.06540 129.72995 1685 ft 179 kts 213°
2026-04-23 05:19 62.05450 129.71276 2050 ft 209 kts 212°
2026-04-23 05:19 62.04197 129.69300 2511 ft 239 kts 213°
2026-04-23 05:19 62.02835 129.67137 3475 ft 247 kts 214°
2026-04-23 05:19 62.01465 129.64949 4698 ft 246 kts 213°
2026-04-23 05:20 62.00089 129.62760 5872 ft 247 kts 213°
2026-04-23 05:20 61.98698 129.60602 6977 ft 248 kts 210°
2026-04-23 05:20 61.97137 129.59064 7930 ft 249 kts 191°
2026-04-23 05:20 61.95414 129.58863 8861 ft 251 kts 168°
2026-04-23 05:21 61.93757 129.60142 9667 ft 258 kts 146°
2026-04-23 05:21 61.92438 129.62828 10466 ft 267 kts 124°
2026-04-23 05:21 61.91699 129.66584 10851 ft 290 kts 100°
2026-04-23 05:21 61.91433 129.70979 11191 ft 310 kts 103°
2026-04-23 05:22 61.90714 129.75296 11818 ft 319 kts 114°
2026-04-23 05:22 61.89760 129.79582 12632 ft 324 kts 115°
2026-04-23 05:22 61.88760 129.83894 13479 ft 328 kts 115°
2026-04-23 05:22 61.87741 129.88254 14279 ft 332 kts 115°
2026-04-23 05:23 61.86710 129.92655 15044 ft 335 kts 115°
2026-04-23 05:23 61.85713 129.97119 15839 ft 337 kts 111°
2026-04-23 05:23 61.85240 130.00329 16386 ft 337 kts 101°
2026-04-23 05:23 61.85196 130.06891 17473 ft 341 kts 80°
2026-04-23 05:24 61.85656 130.10162 18026 ft 345 kts 70°
2026-04-23 05:24 61.86821 130.14649 18778 ft 350 kts 60°
2026-04-23 05:24 61.88170 130.18982 19441 ft 354 kts 59°
2026-04-23 05:24 61.89548 130.23351 20083 ft 358 kts 59°
2026-04-23 05:25 61.90933 130.27777 20738 ft 362 kts 60°
2026-04-23 05:25 61.92322 130.32252 21394 ft 364 kts 60°
2026-04-23 05:25 61.93720 130.36779 21910 ft 370 kts 60°
2026-04-23 05:25 61.95132 130.41376 22489 ft 374 kts 60°
2026-04-23 05:26 61.96556 130.46025 23107 ft 376 kts 60°
2026-04-23 05:26 61.97988 130.50708 23698 ft 379 kts 60°
2026-04-23 05:26 61.99429 130.55433 24177 ft 382 kts 60°
2026-04-23 05:26 62.00879 130.60203 24658 ft 385 kts 60°
2026-04-23 05:27 62.02214 130.65160 25116 ft 386 kts 66°
2026-04-23 05:27 62.03206 130.70472 25582 ft 386 kts 75°
2026-04-23 05:27 62.03780 130.76065 26028 ft 388 kts 84°
2026-04-23 05:27 62.03910 130.81809 26539 ft 388 kts 92°
2026-04-23 05:28 62.03736 130.87549 27036 ft 389 kts 95°
2026-04-23 05:28 62.03449 130.93298 27457 ft 392 kts 96°
2026-04-23 05:28 62.03103 130.99076 27889 ft 395 kts 97°
2026-04-23 05:28 62.02734 131.04891 28293 ft 397 kts 97°
2026-04-23 05:29 62.02363 131.10737 28701 ft 399 kts 97°
2026-04-23 05:29 62.01997 131.16621 29096 ft 402 kts 97°
2026-04-23 05:29 62.01637 131.22548 29408 ft 406 kts 97°
2026-04-23 05:29 62.01280 131.28529 29723 ft 409 kts 97°
2026-04-23 05:30 62.00921 131.34562 30103 ft 411 kts 97°
2026-04-23 05:30 62.00561 131.40614 30443 ft 413 kts 97°
2026-04-23 05:30 62.00196 131.46692 30759 ft 416 kts 97°
2026-04-23 05:30 61.99826 131.52805 31060 ft 418 kts 97°
2026-04-23 05:31 61.99451 131.58950 31349 ft 420 kts 97°
2026-04-23 05:31 61.99069 131.65133 31676 ft 422 kts 97°
2026-04-23 05:31 61.98685 131.71311 32045 ft 421 kts 97°
2026-04-23 05:31 61.98299 131.77474 32478 ft 420 kts 97°
2026-04-23 05:32 61.97912 131.83624 32900 ft 419 kts 97°
2026-04-23 05:32 61.97521 131.89764 33289 ft 418 kts 97°
2026-04-23 05:32 61.97127 131.95884 33674 ft 418 kts 98°
2026-04-23 05:32 61.96732 132.01996 34063 ft 417 kts 98°
2026-04-23 05:33 61.96343 132.08011 34375 ft 416 kts 98°
2026-04-23 05:33 61.95941 132.14191 34583 ft 418 kts 98°
2026-04-23 05:33 61.95537 132.20322 34789 ft 420 kts 98°
2026-04-23 05:33 61.95128 132.26475 35014 ft 421 kts 98°
2026-04-23 05:34 61.94715 132.32649 35233 ft 423 kts 98°
2026-04-23 05:34 61.94297 132.38843 35458 ft 424 kts 98°
2026-04-23 05:34 61.93877 132.45048 35687 ft 426 kts 98°
2026-04-23 05:34 61.93458 132.51203 35909 ft 426 kts 98°
2026-04-23 05:35 61.93030 132.57435 36166 ft 427 kts 98°
2026-04-23 05:35 61.92600 132.63678 36353 ft 428 kts 98°
2026-04-23 05:35 61.92171 132.69949 36535 ft 430 kts 98°
2026-04-23 05:35 61.91743 132.76239 36732 ft 432 kts 98°
2026-04-23 05:36 61.91310 132.82553 36939 ft 433 kts 98°
2026-04-23 05:36 61.90874 132.88884 37146 ft 434 kts 99°
2026-04-23 05:36 61.90430 132.95236 37355 ft 436 kts 99°
2026-04-23 05:36 61.89983 133.01607 37559 ft 437 kts 99°
2026-04-23 05:37 61.89526 133.08074 37754 ft 438 kts 99°
2026-04-23 05:37 61.89069 133.14476 37969 ft 439 kts 99°
2026-04-23 05:37 61.88612 133.20880 38168 ft 440 kts 99°
2026-04-23 05:37 61.88154 133.27233 38346 ft 442 kts 99°
2026-04-23 05:38 61.87681 133.33682 38552 ft 443 kts 99°
2026-04-23 05:38 61.87207 133.40146 38739 ft 445 kts 99°
2026-04-23 05:38 61.86731 133.46633 38881 ft 446 kts 99°
2026-04-23 05:38 61.86244 133.53223 39050 ft 447 kts 99°
2026-04-23 05:39 61.85759 133.59717 39216 ft 446 kts 99°
2026-04-23 05:39 61.85273 133.66207 39382 ft 447 kts 99°
2026-04-23 05:39 61.84775 133.72721 39534 ft 447 kts 100°
2026-04-23 05:39 61.84264 133.79212 39689 ft 448 kts 100°
2026-04-23 05:40 61.83742 133.85712 39857 ft 448 kts 100°
2026-04-23 05:40 61.83221 133.92204 40034 ft 448 kts 100°
2026-04-23 05:40 61.82695 133.98709 40202 ft 449 kts 100°
2026-04-23 05:40 61.82169 134.05209 40360 ft 449 kts 100°
2026-04-23 05:41 61.81639 134.11725 40510 ft 449 kts 100°
2026-04-23 05:41 61.81104 134.18236 40678 ft 450 kts 100°
2026-04-23 05:41 61.80567 134.24759 40782 ft 451 kts 100°
2026-04-23 05:41 61.80024 134.31306 40930 ft 452 kts 100°
2026-04-23 05:42 61.79478 134.37844 41084 ft 452 kts 100°
2026-04-23 05:42 61.78372 134.51025 41112 ft 459 kts 101°
2026-04-23 05:43 61.77244 134.64289 41115 ft 457 kts 101°
2026-04-23 05:43 61.76103 134.77471 41117 ft 457 kts 101°
2026-04-23 05:44 61.74957 134.90648 41112 ft 456 kts 101°
2026-04-23 05:44 61.73799 135.03814 41112 ft 457 kts 101°
2026-04-23 05:45 61.72622 135.16984 41113 ft 457 kts 101°
2026-04-23 05:45 61.71457 135.30163 41112 ft 458 kts 101°
2026-04-23 05:46 61.70289 135.43340 41114 ft 457 kts 101°
2026-04-23 05:46 61.69107 135.56489 41113 ft 457 kts 101°
2026-04-23 05:47 61.67912 135.69652 41111 ft 457 kts 101°
2026-04-23 05:47 61.66708 135.82719 41114 ft 457 kts 101°
2026-04-23 05:48 61.65484 135.95861 41109 ft 458 kts 101°
2026-04-23 05:48 61.64250 136.08999 41109 ft 458 kts 101°
2026-04-23 05:49 61.62998 136.22141 41108 ft 458 kts 102°
2026-04-23 05:49 61.61730 136.35282 41112 ft 458 kts 102°
2026-04-23 05:50 61.60448 136.48390 41114 ft 458 kts 102°
2026-04-23 05:50 61.59157 136.61507 41113 ft 459 kts 102°
2026-04-23 05:51 61.57859 136.74609 41113 ft 458 kts 102°
2026-04-23 05:51 61.56543 136.87685 41114 ft 458 kts 102°
2026-04-23 05:52 61.55212 137.00754 41114 ft 458 kts 102°
2026-04-23 05:52 61.53871 137.13808 41113 ft 458 kts 102°
2026-04-23 05:53 61.52521 137.26860 41112 ft 458 kts 102°
2026-04-23 05:53 61.51159 137.39886 41117 ft 457 kts 102°
2026-04-23 05:54 61.49782 137.52897 41111 ft 458 kts 102°
2026-04-23 05:54 61.48393 137.65909 41115 ft 459 kts 103°
2026-04-23 05:55 61.46986 137.78939 41112 ft 459 kts 103°
2026-04-23 05:55 61.45569 137.91934 41112 ft 458 kts 103°
2026-04-23 05:56 61.44139 138.04917 41112 ft 458 kts 103°
2026-04-23 05:56 61.42705 138.17906 41107 ft 458 kts 103°
2026-04-23 05:57 61.41255 138.30892 41103 ft 459 kts 103°
2026-04-23 05:57 61.39789 138.43855 41102 ft 459 kts 103°
2026-04-23 05:58 61.38306 138.56816 41104 ft 459 kts 103°
2026-04-23 05:58 61.36811 138.69783 41103 ft 460 kts 103°
2026-04-23 05:59 61.35306 138.82733 41098 ft 460 kts 103°
2026-04-23 05:59 61.33786 138.95678 41103 ft 460 kts 103°
2026-04-23 06:00 61.32253 139.08610 41112 ft 460 kts 104°
2026-04-23 06:00 61.30707 139.21542 41105 ft 460 kts 104°
2026-04-23 06:01 61.29148 139.34472 41107 ft 461 kts 104°
2026-04-23 06:01 61.27577 139.47399 41107 ft 461 kts 104°
2026-04-23 06:02 61.25994 139.60307 41107 ft 461 kts 104°
2026-04-23 06:02 61.24398 139.73199 41112 ft 461 kts 104°
2026-04-23 06:03 61.23060 139.83909 41110 ft 461 kts 104°
2026-04-23 06:03 61.21444 139.96773 41112 ft 461 kts 104°
2026-04-23 06:04 61.19811 140.09652 41099 ft 462 kts 104°
2026-04-23 06:04 61.18163 140.22528 41097 ft 462 kts 104°
2026-04-23 06:05 61.16504 140.35401 41095 ft 462 kts 104°
2026-04-23 06:05 61.14831 140.48256 41091 ft 462 kts 104°
2026-04-23 06:06 61.13151 140.61093 41093 ft 462 kts 105°
2026-04-23 06:06 61.11455 140.73922 41091 ft 462 kts 105°
2026-04-23 06:07 61.09748 140.86745 41086 ft 463 kts 105°
2026-04-23 06:07 61.08029 140.99572 41087 ft 463 kts 105°
2026-04-23 06:08 61.06299 141.12369 41084 ft 463 kts 105°
2026-04-23 06:08 61.04554 141.25159 41086 ft 463 kts 105°
2026-04-23 06:09 61.02794 141.37946 41092 ft 464 kts 105°
2026-04-23 06:09 61.01020 141.50736 41095 ft 464 kts 105°
2026-04-23 06:10 60.99235 141.63518 41096 ft 464 kts 105°
2026-04-23 06:10 60.97437 141.76287 41101 ft 464 kts 105°
2026-04-23 06:11 60.95626 141.89064 41101 ft 465 kts 105°
2026-04-23 06:11 60.93802 142.01808 41096 ft 464 kts 105°
2026-04-23 06:12 60.91965 142.14543 41098 ft 465 kts 105°
2026-04-23 06:12 60.89188 142.33621 41090 ft 465 kts 105°
2026-04-23 06:13 60.87321 142.46332 41086 ft 465 kts 105°
2026-04-23 06:13 60.85442 142.59042 41083 ft 466 kts 106°
2026-04-23 06:14 60.83545 142.71745 41077 ft 466 kts 106°
2026-04-23 06:14 60.81637 142.84431 41073 ft 466 kts 106°
2026-04-23 06:15 60.79718 142.97104 41074 ft 466 kts 106°
2026-04-23 06:15 60.77789 143.09762 41069 ft 466 kts 106°
2026-04-23 06:16 60.75847 143.22418 41058 ft 466 kts 106°
2026-04-23 06:16 60.73888 143.35050 41060 ft 466 kts 106°
2026-04-23 06:17 60.71916 143.47666 41056 ft 466 kts 107°
2026-04-23 06:17 60.69933 143.60260 41054 ft 466 kts 107°
2026-04-23 06:18 60.67939 143.72859 41057 ft 467 kts 107°
2026-04-23 06:18 60.65928 143.85463 41052 ft 467 kts 107°
2026-04-23 06:19 60.63905 143.98053 41054 ft 467 kts 107°
2026-04-23 06:19 60.61870 144.10621 41055 ft 467 kts 107°
2026-04-23 06:20 60.59826 144.23165 41056 ft 467 kts 107°
2026-04-23 06:20 60.57778 144.35721 41053 ft 467 kts 107°
2026-04-23 06:21 60.55724 144.48252 41058 ft 468 kts 107°
2026-04-23 06:21 60.53651 144.60774 41052 ft 467 kts 107°
2026-04-23 06:22 60.51564 144.73274 41061 ft 467 kts 107°
2026-04-23 06:22 60.49471 144.85759 41058 ft 467 kts 107°
2026-04-23 06:23 60.47362 144.98229 41058 ft 467 kts 107°
2026-04-23 06:23 60.45242 145.10688 41058 ft 467 kts 107°
2026-04-23 06:24 60.43111 145.23141 41057 ft 468 kts 108°
2026-04-23 06:24 60.40971 145.35566 41058 ft 468 kts 108°
2026-04-23 06:25 60.38819 145.47973 41056 ft 468 kts 108°
2026-04-23 06:25 60.36651 145.60369 41058 ft 467 kts 108°
2026-04-23 06:26 60.34476 145.72733 41058 ft 468 kts 108°
2026-04-23 06:26 60.32288 145.85098 41062 ft 468 kts 108°
2026-04-23 06:27 60.30612 145.96675 41058 ft 465 kts 98°
2026-04-23 06:27 60.29635 146.09500 41064 ft 465 kts 96°
2026-04-23 06:28 60.28800 146.22435 41052 ft 465 kts 95°
2026-04-23 06:28 60.27960 146.35348 40722 ft 463 kts 96°
2026-04-23 06:29 60.27531 146.41757 40303 ft 461 kts 96°
2026-04-23 06:29 60.27096 146.48167 39738 ft 462 kts 96°
2026-04-23 06:29 60.26652 146.54604 39204 ft 464 kts 96°
2026-04-23 06:29 60.26205 146.61038 38647 ft 465 kts 96°
2026-04-23 06:30 60.25754 146.67491 38036 ft 465 kts 95°
2026-04-23 06:30 60.25300 146.73919 37474 ft 462 kts 95°
2026-04-23 06:30 60.24845 146.80309 36947 ft 460 kts 95°
2026-04-23 06:30 60.24388 146.86673 36387 ft 458 kts 95°
2026-04-23 06:31 60.23931 146.93003 35815 ft 456 kts 95°
2026-04-23 06:31 60.23474 146.99309 35257 ft 454 kts 94°
2026-04-23 06:31 60.23016 147.05566 34736 ft 451 kts 94°
2026-04-23 06:31 60.22557 147.11797 34148 ft 449 kts 94°
2026-04-23 06:32 60.22098 147.17992 33272 ft 443 kts 94°
2026-04-23 06:32 60.21647 147.24000 32350 ft 425 kts 94°
2026-04-23 06:32 60.21207 147.29835 31616 ft 422 kts 94°
2026-04-23 06:32 60.20768 147.35687 31022 ft 421 kts 94°
2026-04-23 06:33 60.20330 147.41490 30537 ft 418 kts 94°
2026-04-23 06:33 60.19893 147.47242 30016 ft 416 kts 94°
2026-04-23 06:33 60.19456 147.52960 29453 ft 412 kts 94°
2026-04-23 06:33 60.19018 147.58627 28955 ft 408 kts 95°
2026-04-23 06:34 60.18582 147.64237 28454 ft 404 kts 95°
2026-04-23 06:34 60.18146 147.69786 27956 ft 401 kts 94°
2026-04-23 06:34 60.17712 147.75302 27452 ft 398 kts 94°
2026-04-23 06:34 60.17281 147.80778 26947 ft 395 kts 94°
2026-04-23 06:35 60.16851 147.86210 26448 ft 393 kts 95°
2026-04-23 06:35 60.16421 147.91618 25944 ft 391 kts 95°
2026-04-23 06:35 60.15992 147.96989 25444 ft 389 kts 95°
2026-04-23 06:35 60.15562 148.02343 24953 ft 388 kts 95°
2026-04-23 06:36 60.15132 148.07677 24439 ft 388 kts 95°
2026-04-23 06:36 60.14698 148.13018 23928 ft 387 kts 95°
2026-04-23 06:36 60.14262 148.18340 23388 ft 387 kts 95°
2026-04-23 06:36 60.13824 148.23660 22848 ft 385 kts 95°
2026-04-23 06:37 60.13386 148.28950 22344 ft 383 kts 95°
2026-04-23 06:37 60.12948 148.34208 21848 ft 382 kts 95°
2026-04-23 06:37 60.12509 148.39458 21344 ft 381 kts 96°
2026-04-23 06:37 60.12070 148.44691 20847 ft 380 kts 96°
2026-04-23 06:38 60.11630 148.49907 20361 ft 379 kts 96°
2026-04-23 06:38 60.11187 148.55116 19873 ft 378 kts 95°
2026-04-23 06:38 60.10746 148.60309 19362 ft 378 kts 95°
2026-04-23 06:38 60.10303 148.65512 18854 ft 379 kts 95°
2026-04-23 06:39 60.09855 148.70710 18355 ft 377 kts 95°
2026-04-23 06:39 60.09406 148.75871 17799 ft 375 kts 95°
2026-04-23 06:39 60.08959 148.80996 17304 ft 372 kts 95°
2026-04-23 06:39 60.08514 148.86073 16812 ft 368 kts 95°
2026-04-23 06:40 60.08072 148.91098 16316 ft 365 kts 95°
2026-04-23 06:40 60.07632 148.96100 15817 ft 363 kts 95°
2026-04-23 06:40 60.07193 149.01062 15336 ft 361 kts 95°
2026-04-23 06:40 60.06755 149.05994 14827 ft 359 kts 95°
2026-04-23 06:41 60.06319 149.10892 14359 ft 356 kts 95°
2026-04-23 06:41 60.05890 149.15740 13947 ft 352 kts 95°
2026-04-23 06:41 60.05458 149.20553 13424 ft 351 kts 95°
2026-04-23 06:41 60.05029 149.25333 12929 ft 347 kts 95°
2026-04-23 06:42 60.04599 149.30073 12443 ft 344 kts 95°
2026-04-23 06:42 60.04173 149.34765 11962 ft 342 kts 96°
2026-04-23 06:42 60.03747 149.39420 11473 ft 339 kts 96°
2026-04-23 06:42 60.03325 149.44031 11129 ft 333 kts 96°
2026-04-23 06:43 60.02913 149.48500 11048 ft 319 kts 96°
2026-04-23 06:43 60.02481 149.52761 11044 ft 309 kts 100°
2026-04-23 06:43 60.02078 149.55479 11005 ft 306 kts 104°
2026-04-23 06:43 60.01153 149.60871 10559 ft 307 kts 105°
2026-04-23 06:44 60.00684 149.63528 10309 ft 306 kts 105°
2026-04-23 06:44 59.99975 149.67543 9971 ft 305 kts 105°
2026-04-23 06:44 59.99280 149.71488 9772 ft 294 kts 105°
2026-04-23 06:44 59.98615 149.75256 9176 ft 283 kts 105°
2026-04-23 06:45 59.97968 149.78935 8330 ft 278 kts 106°
2026-04-23 06:45 59.97336 149.82524 7671 ft 268 kts 106°
2026-04-23 06:45 59.96721 149.86036 7235 ft 270 kts 106°
2026-04-23 06:45 59.96103 149.89540 7028 ft 265 kts 105°
2026-04-23 06:46 59.95492 149.92981 6628 ft 260 kts 105°
2026-04-23 06:46 59.94892 149.96354 6018 ft 257 kts 106°
2026-04-23 06:46 59.94292 149.99741 5608 ft 259 kts 106°
2026-04-23 06:46 59.93692 150.03122 5212 ft 259 kts 106°
2026-04-23 06:47 59.93113 150.06513 4854 ft 256 kts 102°
2026-04-23 06:47 59.92782 150.09978 4510 ft 253 kts 92°
2026-04-23 06:47 59.92661 150.13455 4149 ft 250 kts 89°
2026-04-23 06:47 59.92582 150.16899 4000 ft 249 kts 89°
2026-04-23 06:48 59.92499 150.20358 3990 ft 250 kts 89°
2026-04-23 06:48 59.92405 150.23772 3988 ft 249 kts 90°
2026-04-23 06:48 59.92301 150.27198 3985 ft 243 kts 90°
2026-04-23 06:48 59.92198 150.30451 3993 ft 227 kts 90°
2026-04-23 06:49 59.92104 150.33502 3999 ft 214 kts 89°
2026-04-23 06:49 59.92024 150.36385 3957 ft 205 kts 89°
2026-04-23 06:49 59.91963 150.39214 3690 ft 205 kts 89°
2026-04-23 06:49 59.91893 150.42046 3412 ft 202 kts 89°
2026-04-23 06:50 59.91816 150.44747 3091 ft 187 kts 88°
2026-04-23 06:50 59.91749 150.47226 2839 ft 172 kts 89°
2026-04-23 06:50 59.91690 150.49513 2587 ft 159 kts 88°
2026-04-23 06:50 59.91633 150.51657 2359 ft 150 kts 89°
2026-04-23 06:51 59.91579 150.53686 2127 ft 143 kts 89°
2026-04-23 06:51 59.91527 150.55578 1936 ft 131 kts 86°
2026-04-23 06:51 59.91483 150.57355 1736 ft 128 kts 87°
2026-04-23 06:51 59.91437 150.59136 1565 ft 130 kts 88°
2026-04-23 06:52 59.91389 150.60934 1378 ft 130 kts 89°
2026-04-23 06:52 59.91342 150.62722 1210 ft 128 kts 88°
2026-04-23 06:52 59.91297 150.64503 1029 ft 128 kts 89°
2026-04-23 06:52 59.91252 150.66285 870 ft 133 kts 87°
2026-04-23 06:53 59.91205 150.68204 711 ft 143 kts 90°
2026-04-23 06:53 59.91149 150.70150 598 ft 137 kts 92°
2026-04-23 06:53 59.91111 150.71782 586 ft 91 kts 93°
2026-04-23 06:53 59.91089 150.72523 587 ft 34 kts 93°
2026-04-23 06:54 59.91080 150.72863 589 ft 19 kts 88°